This is the latest recevied weather packets stored in our database for station/object N7MLR. If no packets are shown the sender has not sent any weather packets the latest 10 day(s).
| Time | Temp. | Humidity | Pressure | Rain* | Wind** | Luminosity | Snow |
|---|---|---|---|---|---|---|---|
| 1777498364 | 26.67° C | 87% | 1009.5 hPa | 0 mm | - | 489 W/m² | - |
| 1777498062 | 26.67° C | 87% | 1009.6 hPa | 0 mm | - | 175 W/m² | - |
| 1777497758 | 26.67° C | 87% | 1009.8 hPa | 0 mm | - | 201 W/m² | - |
| 1777497456 | 26.67° C | 86% | 1009.6 hPa | 0 mm | - | 156 W/m² | - |
| 1777497151 | 27.22° C | 85% | 1009.8 hPa | 0 mm | - | 254 W/m² | - |
| 1777496848 | 26.67° C | 86% | 1009.9 hPa | 0 mm | - | 450 W/m² | - |
| 1777496546 | 26.11° C | 88% | 1010 hPa | 0 mm | - | 471 W/m² | - |
| 1777496241 | 26.11° C | 88% | 1010.2 hPa | 0 mm | - | 213 W/m² | - |
| 1777495938 | 26.67° C | 87% | 1010.2 hPa | 0 mm | - | 135 W/m² | - |
| 1777495633 | 26.67° C | 87% | 1010.6 hPa | 0 mm | - | 312 W/m² | - |
| 1777495330 | 26.11° C | 88% | 1010.6 hPa | 0 mm | - | 268 W/m² | - |
| 1777495027 | 26.11° C | 88% | 1010.8 hPa | 0 mm | - | 174 W/m² | - |
| 1777494724 | 26.11° C | 89% | 1010.9 hPa | 0 mm | - | 187 W/m² | - |
| 1777494421 | 26.67° C | 88% | 1011.2 hPa | 0 mm | - | 197 W/m² | - |
| 1777494117 | 26.67° C | 88% | 1011.2 hPa | 0 mm | - | 291 W/m² | - |
| 1777493815 | 27.22° C | 87% | 1011.3 hPa | 0 mm | - | 173 W/m² | - |
| 1777493514 | 27.22° C | 88% | 1011.2 hPa | 0 mm | - | 415 W/m² | - |
| 1777493210 | 25.56° C | 91% | 1011.5 hPa | 0 mm | - | 313 W/m² | - |
| 1777492906 | 25.56° C | 92% | 1011.5 hPa | 0 mm | - | 121 W/m² | - |
| 1777492603 | 25.56° C | 93% | 1012 hPa | 0 mm | - | 162 W/m² | - |
| 1777492298 | 25° C | 94% | 1011.3 hPa | 0 mm | - | 231 W/m² | - |
| 1777491996 | 25° C | 95% | 1010.6 hPa | 0 mm | - | 246 W/m² | - |
| 1777491692 | 25° C | 95% | 1010.9 hPa | 0 mm | - | 154 W/m² | - |
| 1777491390 | 25° C | 95% | 1011.5 hPa | 0 mm | - | 89 W/m² | - |
| 1777491087 | 25° C | 94% | 1011.4 hPa | 0 mm | - | 171 W/m² | - |
* Rain latest hour (hover to see other rain measurements)
** Current wind speed in m/s (hover to see current wind gust speed)